This is the latest recevied weather packets stored in our database for station/object IV3CLI-10. If no packets are shown the sender has not sent any weather packets the latest 10 day(s).
| Time | Temp. | Humidity | Pressure | Rain* | Wind** | Luminosity | Snow |
|---|---|---|---|---|---|---|---|
| 1777849779 | 11.11° C | 100% | 1017.4 hPa | - | - | - | - |
| 1777848886 | 11.67° C | 100% | 1017.5 hPa | - | - | - | - |
| 1777847985 | 11.11° C | 100% | 1017.4 hPa | - | - | - | - |
| 1777847085 | 12.22° C | 100% | 1017.4 hPa | - | - | - | - |
| 1777846185 | 12.22° C | 100% | 1017.2 hPa | - | - | - | - |
| 1777845285 | 12.78° C | 100% | 1017.3 hPa | - | - | - | - |
| 1777844385 | 13.33° C | 100% | 1017.2 hPa | - | - | - | - |
| 1777843485 | 13.33° C | 100% | 1017.2 hPa | - | - | - | - |
| 1777842585 | 13.89° C | 100% | 1017.2 hPa | - | - | - | - |
| 1777841685 | 13.89° C | 100% | 1017.1 hPa | - | - | - | - |
| 1777840785 | 13.33° C | 100% | 1017.1 hPa | - | - | - | - |
| 1777839885 | 13.33° C | 100% | 1017 hPa | - | - | - | - |
| 1777838985 | 13.89° C | 100% | 1016.9 hPa | - | - | - | - |
| 1777838084 | 15° C | 100% | 1016.9 hPa | - | - | - | - |
| 1777837184 | 15° C | 100% | 1017 hPa | - | - | - | - |
| 1777836284 | 15° C | 100% | 1016.8 hPa | - | - | - | - |
| 1777835384 | 15° C | 100% | 1017 hPa | - | - | - | - |
| 1777834484 | 16.11° C | 100% | 1016.8 hPa | - | - | - | - |
| 1777833584 | 16.67° C | 100% | 1016.7 hPa | - | - | - | - |
| 1777832684 | 16.67° C | 100% | 1016.8 hPa | - | - | - | - |
| 1777831784 | 17.78° C | 100% | 1016.8 hPa | - | - | - | - |
| 1777830884 | 18.33° C | 100% | 1016.8 hPa | - | - | - | - |
| 1777829984 | 20° C | 100% | 1016.8 hPa | - | - | - | - |
| 1777829084 | 23.33° C | 85% | 1016.8 hPa | - | - | - | - |
| 1777828183 | 22.78° C | 95% | 1017 hPa | - | - | - | - |
* Rain since midnight (hover to see other rain measurements)
** Current wind speed in m/s (hover to see current wind gust speed)